Alliance, NE

8:36 AM MDT on September 21, 2017 (GMT -0600)
Alliance Municipal

Weather History for KAIA - January, 2013

Change the Weather History Date:

Sunday, January 20, 2013

  Actual Average Record
Temperature  
Mean Temperature 18 °F 24 °F  
Max Temperature 32 °F 38 °F 67 °F (2009)
Min Temperature 4 °F 11 °F -19 °F (1935)
Degree Days  
Heating Degree Days 47 40  
Month to date heating degree days 860 822  
Since 1 July heating degree days 3664 3904  
Cooling Degree Days 0 0  
Month to date cooling degree days 0 0  
Year to date cooling degree days 0 0  
Moisture  
Dew Point 15 °F    
Average Humidity 77    
Maximum Humidity 91    
Minimum Humidity 63    
Precipitation  
Precipitation 0.00 in 0.01 in 0.75 in (1930)
Month to date precipitation T 0.11  
Year to date precipitation T 0.11  
Sea Level Pressure  
Sea Level Pressure 30.33 in    
Wind  
Wind Speed 9 mph (NW)    
Max Wind Speed 26 mph    
Max Gust Speed 32 mph    
Visibility 10 miles    
Events      
T = Trace of Precipitation, MM = Missing Value Source: NWS Daily Summary

Daily Weather History Graph

Daily Weather History Graph

Search for Another Location

Airport or City:

Trip Planner

Search our weather history database for the weather conditions in past years. The results will help you decide how hot, cold, wet, or windy it might be!

Date:

Astronomy

Jan. 20, 2013 Rise Set
Actual Time 7:13 AM MST 4:51 PM MST
Civil Twilight 6:43 AM MST 5:21 PM MST
Nautical Twilight 6:09 AM MST 5:55 PM MST
Astronomical Twilight 5:36 AM MST 6:29 PM MST
Moon 11:53 AM MST (1/20) 1:47 AM MST (1/20)
Length of Visible Light 10h 38m
Length of Day
9h 37m
Waxing Gibbous, 67% of the Moon is Illuminated
Jan 20
Waxing Gibbous
Jan 26
Full
Feb 3
Last Quarter
Feb 10
New
Feb 17
First Quarter

Hourly Weather History & Observations

Time (MST) Temp. Windchill Dew Point Humidity Pressure Visibility Wind Dir Wind Speed Gust Speed Precip Events Conditions
12:53 AM 23.0 °F 14.7 °F 19.9 °F 88% 30.17 in 10.0 mi South 6.9 mph - N/A   Clear
1:53 AM 25.0 °F 15.5 °F 21.9 °F 88% 30.16 in 10.0 mi South 9.2 mph - N/A   Clear
2:53 AM 27.0 °F 17.3 °F 21.9 °F 81% 30.15 in 10.0 mi South 10.4 mph - N/A   Clear
3:53 AM 25.0 °F 16.3 °F 21.0 °F 85% 30.15 in 10.0 mi South 8.1 mph - N/A   Clear
4:53 AM 19.4 °F 12.8 °F 17.6 °F 93% 30.10 in 10.0 mi SW 4.6 mph - N/A   Clear
5:53 AM 19.0 °F 12.3 °F 17.1 °F 92% 30.24 in 10.0 mi West 4.6 mph - N/A   Clear
6:53 AM 19.0 °F 8.2 °F 14.0 °F 81% 30.25 in 10.0 mi West 9.2 mph - N/A   Clear
7:53 AM 23.0 °F 10.6 °F 17.1 °F 78% 30.28 in 10.0 mi West 13.8 mph - N/A   Clear
8:53 AM 25.0 °F 11.3 °F 19.0 °F 78% 30.35 in 10.0 mi North 18.4 mph 28.8 mph N/A   Clear
9:37 AM 23.0 °F 7.2 °F 17.6 °F 80% 30.28 in 10.0 mi North 23.0 mph 29.9 mph N/A   Partly Cloudy
9:53 AM 23.0 °F 9.2 °F 19.0 °F 85% 30.43 in 10.0 mi North 17.3 mph 27.6 mph N/A   Scattered Clouds
10:00 AM 24.8 °F 11.9 °F 19.4 °F 80% 30.29 in 10.0 mi North 16.1 mph - N/A   Mostly Cloudy
10:53 AM 26.1 °F 12.0 °F 17.1 °F 69% 30.43 in 10.0 mi North 20.7 mph 24.2 mph N/A   Overcast
11:00 AM 24.8 °F 10.0 °F 17.6 °F 74% 30.30 in 10.0 mi North 21.9 mph 26.5 mph N/A   Overcast
11:42 AM 24.8 °F 12.9 °F 15.8 °F 69% 30.30 in 10.0 mi North 13.8 mph - N/A   Overcast
11:53 AM 25.0 °F 13.6 °F 16.0 °F 69% 30.43 in 10.0 mi North 12.7 mph - N/A   Overcast
12:53 PM 26.1 °F 15.6 °F 15.1 °F 63% 30.40 in 10.0 mi North 11.5 mph - N/A   Overcast
1:53 PM 27.0 °F 17.3 °F 16.0 °F 63% 30.37 in 10.0 mi North 10.4 mph - N/A   Overcast
2:53 PM 27.0 °F 20.5 °F 16.0 °F 63% 30.35 in 10.0 mi NNE 5.8 mph - N/A   Overcast
3:24 PM 26.6 °F 19.1 °F 15.8 °F 64% 30.24 in 10.0 mi North 6.9 mph - N/A   Scattered Clouds
3:53 PM 26.1 °F 17.6 °F 15.1 °F 63% 30.36 in 10.0 mi NNE 8.1 mph - N/A   Clear
4:53 PM 19.9 °F 10.1 °F 12.9 °F 74% 30.39 in 10.0 mi NE 8.1 mph - N/A   Clear
5:53 PM 16.0 °F - 12.0 °F 84% 30.41 in 10.0 mi Calm Calm - N/A   Clear
6:53 PM 14.0 °F - 9.0 °F 80% 30.43 in 10.0 mi Calm Calm - N/A   Clear
7:53 PM 12.9 °F 6.9 °F 8.1 °F 81% 30.43 in 10.0 mi West 3.5 mph - N/A   Clear
8:53 PM 10.9 °F - 7.0 °F 84% 30.43 in 10.0 mi Calm Calm - N/A   Clear
9:53 PM 9.0 °F -3.2 °F 5.0 °F 84% 30.45 in 10.0 mi West 8.1 mph - N/A   Clear
10:53 PM 3.9 °F -6.9 °F -0.0 °F 84% 30.44 in 10.0 mi West 5.8 mph - N/A   Clear
11:53 PM 8.1 °F -3.2 °F 3.9 °F 83% 30.42 in 10.0 mi WNW 6.9 mph - N/A   Partly Cloudy